Вернуться в каталог

EKRAN 3

АктивенСвязьGEO
NORAD 11273·PAYLOAD·🇷🇺 Russia

Запущен Feb 21, 1979 с Baikonur Cosmodrome

Loading…

TLE

СвежийSource: Space-Track

Эпоха: Sep 14, 2026, 14:15 UTC

1 11273U 79015A   26257.59442775 -.00000301  00000-0  00000-0 0  9996
2 11273   4.9008 280.6434 0041349   9.0432  15.0909  1.00296188135911

Отслеживайте EKRAN 3 в реальном времени с AllMySat

Download on the App Store